,,,PA_Meas_PMT16A,,PR_Meas_QMR101_102,,RH_Meas_QMH101,,SR_Meas_QMS101,,TA_Meas_QMH101,,GenWind,,GenWind,
date,time,status,PA,status,PR,status,RH,status,SR,status,TA,status,DirAvg,status,SpdAvg,
2012-07-07, 00:00:04,VALID,998.993,VALID,0,VALID,95.1414,VALID,0,VALID,22.9971,VALID,57,VALID,0.391406,
2012-07-07, 00:01:04,VALID,998.967,VALID,0,VALID,95.149,VALID,0,VALID,22.9776,VALID,57,VALID,0.423047,
2012-07-07, 00:02:04,VALID,998.981,VALID,0,VALID,95.2024,VALID,0,VALID,22.9581,VALID,57,VALID,0.422656,
2012-07-07, 00:03:04,VALID,998.987,VALID,0,VALID,95.2558,VALID,0.104696,VALID,22.9776,VALID,57,VALID,0.577344,
2012-07-07, 00:04:04,VALID,998.973,VALID,0,VALID,95.294,VALID,0,VALID,22.9581,VALID,57,VALID,0.488672,
2012-07-07, 00:05:04,VALID,998.946,VALID,0,VALID,95.3321,VALID,0,VALID,22.9581,VALID,57,VALID,0.464453,
2012-07-07, 00:06:04,VALID,998.947,VALID,0,VALID,95.355,VALID,0,VALID,22.9598,VALID,57,VALID,0.423438,
2012-07-07, 00:07:04,VALID,998.943,VALID,0,VALID,95.3931,VALID,0,VALID,22.9598,VALID,57,VALID,0.508594,
2012-07-07, 00:08:04,VALID,998.951,VALID,0,VALID,95.3931,VALID,0,VALID,22.9385,VALID,57,VALID,0.576953,
2012-07-07, 00:09:04,VALID,998.945,VALID,0,VALID,95.4313,VALID,0,VALID,22.9403,VALID,57,VALID,0.571484,
2012-07-07, 00:10:04,VALID,998.948,VALID,0,VALID,95.4389,VALID,0,VALID,22.9403,VALID,57,VALID,0.561719,
2012-07-07, 00:11:04,VALID,998.935,VALID,0,VALID,95.4389,VALID,0,VALID,22.919,VALID,57,VALID,0.525391,
2012-07-07, 00:12:04,VALID,998.943,VALID,0,VALID,95.4847,VALID,0,VALID,22.919,VALID,57,VALID,0.440234,
2012-07-07, 00:13:04,VALID,998.936,VALID,0,VALID,95.5,VALID,0,VALID,22.9403,VALID,57,VALID,0.274219,
2012-07-07, 00:14:04,VALID,998.946,VALID,0,VALID,95.5152,VALID,0,VALID,22.9385,VALID,57,VALID,0.429297,
2012-07-07, 00:15:04,VALID,998.934,VALID,0,VALID,95.5534,VALID,0,VALID,22.9598,VALID,57,VALID,0.412891,
2012-07-07, 00:16:04,VALID,998.919,VALID,0,VALID,95.5762,VALID,0,VALID,22.9598,VALID,57,VALID,0.284766,
2012-07-07, 00:17:04,VALID,998.918,VALID,0,VALID,95.5839,VALID,0,VALID,22.9598,VALID,57,VALID,0.340625,
2012-07-07, 00:18:04,VALID,998.936,VALID,0,VALID,95.5839,VALID,0,VALID,22.9385,VALID,57,VALID,0.433984,
2012-07-07, 00:19:04,VALID,998.956,VALID,0,VALID,95.561,VALID,0.104696,VALID,22.9403,VALID,57,VALID,0.353516,
2012-07-07, 00:20:04,VALID,998.962,VALID,0,VALID,95.5534,VALID,0,VALID,22.8995,VALID,57,VALID,0.494531,
2012-07-07, 00:21:04,VALID,998.964,VALID,0,VALID,95.5762,VALID,0,VALID,22.9403,VALID,57,VALID,0.554297,
2012-07-07, 00:22:04,VALID,998.94,VALID,0,VALID,95.5686,VALID,0,VALID,22.9403,VALID,57,VALID,0.566406,
2012-07-07, 00:23:04,VALID,998.945,VALID,0,VALID,95.5762,VALID,0,VALID,22.9776,VALID,57,VALID,0.641406,
2012-07-07, 00:24:04,VALID,998.927,VALID,0,VALID,95.6144,VALID,0,VALID,22.9988,VALID,57,VALID,0.552344,
2012-07-07, 00:25:04,VALID,998.93,VALID,0,VALID,95.622,VALID,0,VALID,22.9581,VALID,57,VALID,0.535156,
2012-07-07, 00:26:04,VALID,998.907,VALID,0,VALID,95.6144,VALID,0,VALID,22.9598,VALID,57,VALID,0.641406,
2012-07-07, 00:27:04,VALID,998.889,VALID,0,VALID,95.5991,VALID,0,VALID,22.9403,VALID,57,VALID,0.626172,
2012-07-07, 00:28:04,VALID,998.858,VALID,0,VALID,95.5762,VALID,0,VALID,22.9208,VALID,57,VALID,0.630469,
2012-07-07, 00:29:04,VALID,998.851,VALID,0,VALID,95.5762,VALID,0,VALID,22.8818,VALID,57,VALID,0.55,
2012-07-07, 00:30:04,VALID,998.862,VALID,0,VALID,95.5915,VALID,0,VALID,22.9208,VALID,57,VALID,0.394922,
2012-07-07, 00:31:04,VALID,998.829,VALID,0,VALID,95.5686,VALID,0,VALID,22.9403,VALID,57,VALID,0.269922,
2012-07-07, 00:32:04,VALID,998.821,VALID,0,VALID,95.5991,VALID,0,VALID,22.9403,VALID,57,VALID,0.213281,
2012-07-07, 00:33:04,VALID,998.823,VALID,0,VALID,95.6068,VALID,0,VALID,22.9598,VALID,57,VALID,0.195703,
2012-07-07, 00:34:04,VALID,998.83,VALID,0,VALID,95.6144,VALID,0,VALID,22.9385,VALID,57,VALID,0.176172,
2012-07-07, 00:35:04,VALID,998.811,VALID,0,VALID,95.622,VALID,0,VALID,22.9385,VALID,57,VALID,0.273047,
2012-07-07, 00:36:04,VALID,998.808,VALID,0,VALID,95.6144,VALID,0,VALID,22.9403,VALID,57,VALID,0.413672,
2012-07-07, 00:37:04,VALID,998.79,VALID,0,VALID,95.6373,VALID,0,VALID,22.9208,VALID,57,VALID,0.325,
2012-07-07, 00:38:04,VALID,998.763,VALID,0,VALID,95.622,VALID,0,VALID,22.9208,VALID,57,VALID,0.305469,
2012-07-07, 00:39:04,VALID,998.739,VALID,0,VALID,95.622,VALID,0,VALID,22.9013,VALID,57,VALID,0.333594,
2012-07-07, 00:40:04,VALID,998.697,VALID,0,VALID,95.6297,VALID,0,VALID,22.9013,VALID,57,VALID,0.0117188,
2012-07-07, 00:41:04,VALID,998.687,VALID,0,VALID,95.6297,VALID,0,VALID,22.8818,VALID,57,VALID,0,
2012-07-07, 00:42:04,VALID,998.661,VALID,0,VALID,95.6449,VALID,0,VALID,22.8818,VALID,57,VALID,0,
2012-07-07, 00:43:04,VALID,998.655,VALID,0,VALID,95.6373,VALID,0,VALID,22.8605,VALID,57,VALID,0,
2012-07-07, 00:44:04,VALID,998.632,VALID,0,VALID,95.6144,VALID,0,VALID,22.8818,VALID,57,VALID,0,
2012-07-07, 00:45:04,VALID,998.604,VALID,0,VALID,95.6449,VALID,0,VALID,22.8623,VALID,57,VALID,0,
2012-07-07, 00:46:04,VALID,998.595,VALID,0,VALID,95.6525,VALID,0,VALID,22.8623,VALID,57,VALID,0,
2012-07-07, 00:47:04,VALID,998.597,VALID,0,VALID,95.6373,VALID,0,VALID,22.8427,VALID,57,VALID,0,
2012-07-07, 00:48:04,VALID,998.581,VALID,0,VALID,95.6525,VALID,0,VALID,22.8427,VALID,57,VALID,0,
2012-07-07, 00:49:04,VALID,998.583,VALID,0,VALID,95.6754,VALID,0,VALID,22.8427,VALID,57,VALID,0,
2012-07-07, 00:50:04,VALID,998.588,VALID,0,VALID,95.6602,VALID,0,VALID,22.8623,VALID,57,VALID,0,
2012-07-07, 00:51:04,VALID,998.555,VALID,0,VALID,95.6602,VALID,0,VALID,22.8215,VALID,57,VALID,0,
2012-07-07, 00:52:04,VALID,998.57,VALID,0,VALID,95.6678,VALID,0,VALID,22.8232,VALID,57,VALID,0,
2012-07-07, 00:53:04,VALID,998.514,VALID,0,VALID,95.6449,VALID,0,VALID,22.8232,VALID,57,VALID,0,
2012-07-07, 00:54:04,VALID,998.481,VALID,0,VALID,95.6754,VALID,0,VALID,22.8232,VALID,57,VALID,0,
2012-07-07, 00:55:04,VALID,998.44,VALID,0,VALID,95.6678,VALID,0,VALID,22.8232,VALID,57,VALID,0,
2012-07-07, 00:56:04,VALID,998.429,VALID,0,VALID,95.6831,VALID,0,VALID,22.8232,VALID,57,VALID,0,
2012-07-07, 00:57:04,VALID,998.402,VALID,0,VALID,95.6831,VALID,0,VALID,22.802,VALID,57,VALID,0,
2012-07-07, 00:58:04,VALID,998.387,VALID,0,VALID,95.6907,VALID,0,VALID,22.8037,VALID,57,VALID,0,
2012-07-07, 00:59:04,VALID,998.391,VALID,0,VALID,95.7136,VALID,0,VALID,22.8037,VALID,57,VALID,0,
2012-07-07, 01:00:04,VALID,998.384,VALID,0,VALID,95.6907,VALID,0,VALID,22.7842,VALID,57,VALID,0,
2012-07-07, 01:01:04,VALID,998.359,VALID,0,VALID,95.6907,VALID,0,VALID,22.8037,VALID,57,VALID,0,
2012-07-07, 01:02:04,VALID,998.341,VALID,0,VALID,95.706,VALID,0,VALID,22.763,VALID,57,VALID,0,
2012-07-07, 01:03:04,VALID,998.303,VALID,0,VALID,95.7288,VALID,0,VALID,22.7825,VALID,57,VALID,0,
2012-07-07, 01:04:04,VALID,998.293,VALID,0,VALID,95.706,VALID,0,VALID,22.802,VALID,57,VALID,0,
2012-07-07, 01:05:04,VALID,998.271,VALID,0,VALID,95.706,VALID,0,VALID,22.8232,VALID,57,VALID,0,
2012-07-07, 01:06:04,VALID,998.237,VALID,0,VALID,95.7212,VALID,0,VALID,22.8232,VALID,57,VALID,0,
2012-07-07, 01:07:04,VALID,998.23,VALID,0,VALID,95.7288,VALID,0,VALID,22.7842,VALID,57,VALID,0,
2012-07-07, 01:08:04,VALID,998.213,VALID,0,VALID,95.7365,VALID,0,VALID,22.7647,VALID,57,VALID,0,
2012-07-07, 01:09:04,VALID,998.213,VALID,0,VALID,95.7365,VALID,0,VALID,22.7257,VALID,57,VALID,0,
2012-07-07, 01:10:04,VALID,998.217,VALID,0,VALID,95.7288,VALID,0,VALID,22.6867,VALID,57,VALID,0,
2012-07-07, 01:11:04,VALID,998.22,VALID,0,VALID,95.7212,VALID,0,VALID,22.6655,VALID,68,VALID,0.575781,
2012-07-07, 01:12:04,VALID,998.225,VALID,0,VALID,95.7212,VALID,0,VALID,22.724,VALID,68,VALID,0.575781,
2012-07-07, 01:13:04,VALID,998.233,VALID,0,VALID,95.7365,VALID,0,VALID,22.7647,VALID,68,VALID,0.767578,
2012-07-07, 01:14:04,VALID,998.22,VALID,0,VALID,95.7288,VALID,0,VALID,22.763,VALID,68,VALID,0.879297,
2012-07-07, 01:15:04,VALID,998.227,VALID,0,VALID,95.7517,VALID,0,VALID,22.7825,VALID,68,VALID,0.876562,
2012-07-07, 01:16:04,VALID,998.222,VALID,0,VALID,95.7517,VALID,0,VALID,22.8232,VALID,110,VALID,0.975781,
2012-07-07, 01:17:04,VALID,998.208,VALID,0,VALID,95.7517,VALID,0,VALID,22.8427,VALID,140,VALID,0.982422,
2012-07-07, 01:18:04,VALID,998.211,VALID,0,VALID,95.7746,VALID,0,VALID,22.8232,VALID,143,VALID,1.21445,
2012-07-07, 01:19:04,VALID,998.196,VALID,0,VALID,95.7365,VALID,0,VALID,22.8232,VALID,143,VALID,1.13516,
2012-07-07, 01:20:04,VALID,998.158,VALID,0,VALID,95.7517,VALID,0,VALID,22.8427,VALID,149,VALID,1.20352,
2012-07-07, 01:21:04,VALID,998.163,VALID,0,VALID,95.7136,VALID,0,VALID,22.8818,VALID,151,VALID,1.31875,
2012-07-07, 01:22:04,VALID,998.155,VALID,0,VALID,95.6754,VALID,0,VALID,22.9208,VALID,151,VALID,1.17188,
2012-07-07, 01:23:04,VALID,998.134,VALID,0,VALID,95.6678,VALID,0,VALID,22.919,VALID,151,VALID,1.06445,
2012-07-07, 01:24:04,VALID,998.127,VALID,0,VALID,95.6602,VALID,0,VALID,22.9598,VALID,151,VALID,1.04883,
2012-07-07, 01:25:04,VALID,998.092,VALID,0,VALID,95.622,VALID,0,VALID,22.9793,VALID,151,VALID,0.965625,
2012-07-07, 01:26:04,VALID,998.104,VALID,0,VALID,95.6297,VALID,0,VALID,22.9988,VALID,151,VALID,0.919141,
2012-07-07, 01:27:04,VALID,998.066,VALID,0,VALID,95.6068,VALID,0,VALID,23.0183,VALID,151,VALID,0.667969,
2012-07-07, 01:28:04,VALID,998.055,VALID,0,VALID,95.6068,VALID,0,VALID,23.0183,VALID,151,VALID,0.191797,
2012-07-07, 01:29:04,VALID,998.084,VALID,0,VALID,95.5305,VALID,0,VALID,22.9403,VALID,151,VALID,0.400781,
2012-07-07, 01:30:04,VALID,998.026,VALID,0,VALID,95.4694,VALID,0,VALID,22.8623,VALID,151,VALID,0.452734,
2012-07-07, 01:31:04,VALID,998.034,VALID,0,VALID,95.416,VALID,0,VALID,22.8232,VALID,151,VALID,0.373437,
2012-07-07, 01:32:04,VALID,998.039,VALID,0,VALID,95.416,VALID,0,VALID,22.8037,VALID,151,VALID,0.306641,
2012-07-07, 01:33:04,VALID,997.983,VALID,0,VALID,95.4389,VALID,0,VALID,22.8037,VALID,151,VALID,0.211719,
2012-07-07, 01:34:04,VALID,997.967,VALID,0,VALID,95.416,VALID,0,VALID,22.7842,VALID,151,VALID,0,
2012-07-07, 01:35:04,VALID,998.004,VALID,0,VALID,95.4313,VALID,0,VALID,22.7647,VALID,151,VALID,0,
2012-07-07, 01:36:04,VALID,997.947,VALID,0,VALID,95.4542,VALID,0,VALID,22.7647,VALID,151,VALID,0,
2012-07-07, 01:37:04,VALID,997.958,VALID,0,VALID,95.4694,VALID,0,VALID,22.7435,VALID,151,VALID,0,
2012-07-07, 01:38:04,VALID,997.967,VALID,0,VALID,95.4771,VALID,0,VALID,22.7452,VALID,151,VALID,0,
2012-07-07, 01:39:04,VALID,997.945,VALID,0,VALID,95.4694,VALID,0,VALID,22.7062,VALID,151,VALID,0,
2012-07-07, 01:40:04,VALID,997.951,VALID,0,VALID,95.4542,VALID,0,VALID,22.6867,VALID,151,VALID,0,
2012-07-07, 01:41:04,VALID,997.947,VALID,0,VALID,95.4694,VALID,0,VALID,22.6672,VALID,151,VALID,0,
2012-07-07, 01:42:04,VALID,997.936,VALID,0,VALID,95.5228,VALID,0,VALID,22.6655,VALID,151,VALID,0,
2012-07-07, 01:43:04,VALID,997.948,VALID,0,VALID,95.5305,VALID,0,VALID,22.6867,VALID,151,VALID,0,
2012-07-07, 01:44:04,VALID,997.957,VALID,0,VALID,95.5534,VALID,0,VALID,22.6672,VALID,151,VALID,0,
2012-07-07, 01:45:04,VALID,997.97,VALID,0,VALID,95.5381,VALID,0,VALID,22.6282,VALID,151,VALID,0.0335938,
2012-07-07, 01:46:04,VALID,997.944,VALID,0,VALID,95.5,VALID,0,VALID,22.5696,VALID,151,VALID,0.635156,
2012-07-07, 01:47:04,VALID,997.926,VALID,0,VALID,95.5228,VALID,0,VALID,22.5306,VALID,151,VALID,0.660937,
2012-07-07, 01:48:04,VALID,997.928,VALID,0,VALID,95.5534,VALID,0,VALID,22.5501,VALID,110,VALID,0.659375,
2012-07-07, 01:49:04,VALID,997.911,VALID,0,VALID,95.5991,VALID,0,VALID,22.5306,VALID,110,VALID,0.801953,
2012-07-07, 01:50:04,VALID,997.92,VALID,0,VALID,95.6068,VALID,0,VALID,22.4721,VALID,76,VALID,1.02891,
2012-07-07, 01:51:04,VALID,997.904,VALID,0,VALID,95.622,VALID,0,VALID,22.5501,VALID,76,VALID,0.95625,
2012-07-07, 01:52:04,VALID,997.9,VALID,0,VALID,95.6754,VALID,0,VALID,22.5714,VALID,76,VALID,0.858594,
2012-07-07, 01:53:04,VALID,997.91,VALID,0,VALID,95.706,VALID,0,VALID,22.5696,VALID,76,VALID,0.682031,
2012-07-07, 01:54:04,VALID,997.909,VALID,0,VALID,95.7365,VALID,0,VALID,22.5696,VALID,76,VALID,0.539453,
2012-07-07, 01:55:04,VALID,997.878,VALID,0,VALID,95.7594,VALID,0,VALID,22.5306,VALID,76,VALID,0.226172,
2012-07-07, 01:56:04,VALID,997.866,VALID,0,VALID,95.767,VALID,0,VALID,22.4721,VALID,76,VALID,0,
2012-07-07, 01:57:04,VALID,997.887,VALID,0,VALID,95.767,VALID,0,VALID,22.4136,VALID,76,VALID,0,
2012-07-07, 01:58:04,VALID,997.89,VALID,0,VALID,95.7517,VALID,0,VALID,22.4136,VALID,76,VALID,0,
2012-07-07, 01:59:04,VALID,997.874,VALID,0,VALID,95.7746,VALID,0,VALID,22.4331,VALID,76,VALID,0,
2012-07-07, 02:00:04,VALID,997.906,VALID,0,VALID,95.767,VALID,0,VALID,22.4721,VALID,76,VALID,0,
2012-07-07, 02:01:04,VALID,997.89,VALID,0,VALID,95.8051,VALID,0,VALID,22.4721,VALID,76,VALID,0,
2012-07-07, 02:02:04,VALID,997.888,VALID,0,VALID,95.8051,VALID,0.104696,VALID,22.5111,VALID,76,VALID,0,
2012-07-07, 02:03:04,VALID,997.938,VALID,0,VALID,95.8204,VALID,0,VALID,22.4916,VALID,76,VALID,0,
2012-07-07, 02:04:04,VALID,997.928,VALID,0,VALID,95.8204,VALID,0,VALID,22.4916,VALID,76,VALID,0,
2012-07-07, 02:05:04,VALID,997.893,VALID,0,VALID,95.8204,VALID,0,VALID,22.4916,VALID,76,VALID,0,
2012-07-07, 02:06:04,VALID,997.925,VALID,0,VALID,95.828,VALID,0,VALID,22.4916,VALID,76,VALID,0.352344,
2012-07-07, 02:07:04,VALID,997.927,VALID,0,VALID,95.8509,VALID,0,VALID,22.4916,VALID,76,VALID,0.773047,
2012-07-07, 02:08:04,VALID,997.936,VALID,0,VALID,95.8357,VALID,0,VALID,22.4916,VALID,76,VALID,0.812891,
2012-07-07, 02:09:04,VALID,997.931,VALID,0,VALID,95.8433,VALID,0,VALID,22.4721,VALID,76,VALID,1.01563,
2012-07-07, 02:10:04,VALID,997.913,VALID,0,VALID,95.8662,VALID,0,VALID,22.4526,VALID,76,VALID,1.05977,
2012-07-07, 02:11:04,VALID,997.937,VALID,0,VALID,95.8891,VALID,0,VALID,22.3551,VALID,76,VALID,0.859766,
2012-07-07, 02:12:04,VALID,997.929,VALID,0,VALID,95.8662,VALID,0,VALID,22.2754,VALID,76,VALID,0.874609,
2012-07-07, 02:13:04,VALID,997.9,VALID,0,VALID,95.8814,VALID,0,VALID,22.2364,VALID,76,VALID,0.7375,
2012-07-07, 02:14:04,VALID,997.907,VALID,0,VALID,95.8662,VALID,0.104696,VALID,22.2381,VALID,76,VALID,0.534375,
2012-07-07, 02:15:04,VALID,997.911,VALID,0,VALID,95.8738,VALID,0,VALID,22.1795,VALID,76,VALID,0.380859,
2012-07-07, 02:16:04,VALID,997.897,VALID,0,VALID,95.8814,VALID,0,VALID,22.1405,VALID,76,VALID,0.15,
2012-07-07, 02:17:04,VALID,997.948,VALID,0,VALID,95.8738,VALID,0,VALID,22.121,VALID,76,VALID,0.118359,
2012-07-07, 02:18:04,VALID,997.921,VALID,0,VALID,95.8509,VALID,0,VALID,22.0608,VALID,76,VALID,0.156641,
2012-07-07, 02:19:04,VALID,997.936,VALID,0,VALID,95.8509,VALID,0,VALID,22.1015,VALID,76,VALID,0.276172,
2012-07-07, 02:20:04,VALID,997.934,VALID,0,VALID,95.8509,VALID,0,VALID,22.1015,VALID,76,VALID,0.372656,
2012-07-07, 02:21:04,VALID,997.931,VALID,0,VALID,95.8509,VALID,0,VALID,22.121,VALID,76,VALID,0.392578,
2012-07-07, 02:22:04,VALID,997.958,VALID,0,VALID,95.8891,VALID,0,VALID,22.121,VALID,76,VALID,0.365625,
2012-07-07, 02:23:04,VALID,997.943,VALID,0,VALID,95.8814,VALID,0,VALID,22.1405,VALID,76,VALID,0.392188,
2012-07-07, 02:24:04,VALID,997.93,VALID,0,VALID,95.9043,VALID,0,VALID,22.16,VALID,76,VALID,0.385938,
2012-07-07, 02:25:04,VALID,997.969,VALID,0,VALID,95.8891,VALID,0,VALID,22.1405,VALID,76,VALID,0.333594,
2012-07-07, 02:26:04,VALID,997.97,VALID,0,VALID,95.8967,VALID,0,VALID,22.1194,VALID,76,VALID,0.123828,
2012-07-07, 02:27:04,VALID,997.986,VALID,0,VALID,95.912,VALID,0,VALID,22.1405,VALID,76,VALID,0,
2012-07-07, 02:28:04,VALID,997.966,VALID,0,VALID,95.9043,VALID,0,VALID,22.121,VALID,76,VALID,0,
2012-07-07, 02:29:04,VALID,998.004,VALID,0,VALID,95.9196,VALID,0,VALID,22.121,VALID,76,VALID,0,
2012-07-07, 02:30:04,VALID,998.024,VALID,0,VALID,95.9196,VALID,0,VALID,22.1389,VALID,76,VALID,0.187891,
2012-07-07, 02:31:04,VALID,998.001,VALID,0,VALID,95.8891,VALID,0,VALID,22.1795,VALID,76,VALID,0.296484,
2012-07-07, 02:32:04,VALID,998.041,VALID,0,VALID,95.8891,VALID,0,VALID,22.199,VALID,76,VALID,0.447266,
2012-07-07, 02:33:04,VALID,997.99,VALID,0,VALID,95.912,VALID,0,VALID,22.1974,VALID,76,VALID,0.368359,
2012-07-07, 02:34:04,VALID,998.029,VALID,0,VALID,95.9043,VALID,0,VALID,22.2186,VALID,76,VALID,0.397656,
2012-07-07, 02:35:04,VALID,998.051,VALID,0,VALID,95.9272,VALID,0,VALID,22.2186,VALID,76,VALID,0.404297,
2012-07-07, 02:36:04,VALID,998.053,VALID,0,VALID,95.9348,VALID,0,VALID,22.199,VALID,76,VALID,0.376563,
2012-07-07, 02:37:04,VALID,998.073,VALID,0,VALID,95.9577,VALID,0,VALID,22.1584,VALID,76,VALID,0.499609,
2012-07-07, 02:38:04,VALID,998.1,VALID,0,VALID,95.9577,VALID,0,VALID,22.16,VALID,76,VALID,0.562891,
2012-07-07, 02:39:04,VALID,998.116,VALID,0,VALID,95.9196,VALID,0,VALID,22.16,VALID,76,VALID,0.778125,
2012-07-07, 02:40:04,VALID,998.119,VALID,0,VALID,95.9272,VALID,0,VALID,22.1795,VALID,76,VALID,0.729297,
2012-07-07, 02:41:04,VALID,998.107,VALID,0,VALID,95.9425,VALID,0,VALID,22.1584,VALID,76,VALID,0.766406,
2012-07-07, 02:42:04,VALID,998.138,VALID,0,VALID,95.9654,VALID,0,VALID,22.16,VALID,76,VALID,0.825781,
2012-07-07, 02:43:04,VALID,998.122,VALID,0,VALID,95.973,VALID,0,VALID,22.1015,VALID,76,VALID,0.936719,
2012-07-07, 02:44:04,VALID,998.109,VALID,0,VALID,96.0111,VALID,0,VALID,22.0235,VALID,59,VALID,1.06758,
2012-07-07, 02:45:04,VALID,998.105,VALID,0,VALID,95.9806,VALID,0,VALID,21.9845,VALID,50,VALID,1.01406,
2012-07-07, 02:46:04,VALID,998.11,VALID,0,VALID,95.973,VALID,0,VALID,21.9455,VALID,50,VALID,1.06367,
2012-07-07, 02:47:04,VALID,998.109,VALID,0,VALID,95.973,VALID,0,VALID,21.926,VALID,50,VALID,0.910937,
2012-07-07, 02:48:04,VALID,998.038,VALID,0,VALID,95.9577,VALID,0,VALID,21.926,VALID,50,VALID,0.894531,
2012-07-07, 02:49:04,VALID,998.039,VALID,0,VALID,95.9501,VALID,0,VALID,21.9845,VALID,44,VALID,0.704687,
2012-07-07, 02:50:04,VALID,998.032,VALID,0,VALID,95.9348,VALID,0,VALID,22.004,VALID,44,VALID,0.402734,
2012-07-07, 02:51:04,VALID,998.007,VALID,0,VALID,95.9425,VALID,0,VALID,22.0235,VALID,44,VALID,0.469141,
2012-07-07, 02:52:04,VALID,997.979,VALID,0,VALID,95.9348,VALID,0,VALID,22.0235,VALID,44,VALID,0.365625,
2012-07-07, 02:53:04,VALID,997.959,VALID,0,VALID,95.9577,VALID,0,VALID,22.0235,VALID,44,VALID,0.440234,
2012-07-07, 02:54:04,VALID,997.959,VALID,0,VALID,95.973,VALID,0,VALID,22.004,VALID,44,VALID,0.405859,
2012-07-07, 02:55:04,VALID,997.964,VALID,0,VALID,95.9577,VALID,0,VALID,22.043,VALID,44,VALID,0.514844,
2012-07-07, 02:56:04,VALID,997.926,VALID,0,VALID,95.973,VALID,0,VALID,22.0235,VALID,44,VALID,0.566406,
2012-07-07, 02:57:04,VALID,997.915,VALID,0,VALID,95.9577,VALID,0,VALID,22.0235,VALID,44,VALID,0.542578,
2012-07-07, 02:58:04,VALID,997.936,VALID,0,VALID,95.9348,VALID,0,VALID,22.0625,VALID,44,VALID,0.602734,
2012-07-07, 02:59:04,VALID,997.924,VALID,0,VALID,95.912,VALID,0,VALID,22.1015,VALID,44,VALID,0.489062,
2012-07-07, 03:00:04,VALID,997.921,VALID,0,VALID,95.9272,VALID,0,VALID,22.1405,VALID,44,VALID,0.633594,
2012-07-07, 03:01:04,VALID,997.904,VALID,0,VALID,95.9272,VALID,0,VALID,22.1405,VALID,44,VALID,0.634375,
2012-07-07, 03:02:04,VALID,997.88,VALID,0,VALID,95.9577,VALID,0,VALID,22.1405,VALID,44,VALID,0.727734,
2012-07-07, 03:03:04,VALID,997.908,VALID,0,VALID,95.9806,VALID,0,VALID,22.121,VALID,44,VALID,0.678906,
2012-07-07, 03:04:04,VALID,997.881,VALID,0,VALID,96.0035,VALID,0,VALID,22.082,VALID,44,VALID,0.699609,
2012-07-07, 03:05:04,VALID,997.886,VALID,0,VALID,96.0035,VALID,0,VALID,22.043,VALID,44,VALID,0.806641,
2012-07-07, 03:06:04,VALID,997.879,VALID,0,VALID,95.9425,VALID,0,VALID,22.0625,VALID,44,VALID,0.822656,
2012-07-07, 03:07:04,VALID,997.847,VALID,0,VALID,95.9959,VALID,0,VALID,22.043,VALID,44,VALID,0.822656,
2012-07-07, 03:08:04,VALID,997.849,VALID,0,VALID,95.9959,VALID,0,VALID,22.0235,VALID,44,VALID,0.758984,
2012-07-07, 03:09:04,VALID,997.821,VALID,0,VALID,95.973,VALID,0,VALID,22.0235,VALID,44,VALID,0.644531,
2012-07-07, 03:10:04,VALID,997.868,VALID,0,VALID,95.9959,VALID,0,VALID,22.0235,VALID,44,VALID,0.634766,
2012-07-07, 03:11:04,VALID,997.865,VALID,0,VALID,96.0111,VALID,0,VALID,21.9845,VALID,44,VALID,0.615625,
2012-07-07, 03:12:04,VALID,997.906,VALID,0,VALID,96.034,VALID,0,VALID,21.9455,VALID,44,VALID,0.697656,
2012-07-07, 03:13:04,VALID,997.902,VALID,0,VALID,96.0188,VALID,0,VALID,21.926,VALID,44,VALID,0.726563,
2012-07-07, 03:14:04,VALID,997.9,VALID,0,VALID,95.9959,VALID,0,VALID,21.9065,VALID,44,VALID,0.903125,
2012-07-07, 03:15:04,VALID,997.903,VALID,0,VALID,96.0111,VALID,0,VALID,21.9065,VALID,44,VALID,0.933984,
2012-07-07, 03:16:04,VALID,997.922,VALID,0,VALID,96.0111,VALID,0,VALID,21.9065,VALID,44,VALID,0.881641,
2012-07-07, 03:17:04,VALID,997.932,VALID,0,VALID,96.034,VALID,0,VALID,21.8658,VALID,44,VALID,0.895703,
2012-07-07, 03:18:04,VALID,997.968,VALID,0,VALID,96.0417,VALID,0,VALID,21.8675,VALID,44,VALID,0.901172,
2012-07-07, 03:19:04,VALID,997.971,VALID,0,VALID,96.0111,VALID,0,VALID,21.8675,VALID,44,VALID,0.91875,
2012-07-07, 03:20:04,VALID,997.978,VALID,0,VALID,96.0188,VALID,0,VALID,21.8692,VALID,44,VALID,0.785156,
2012-07-07, 03:21:04,VALID,997.982,VALID,0,VALID,95.9959,VALID,0,VALID,21.848,VALID,44,VALID,0.678906,
2012-07-07, 03:22:04,VALID,997.987,VALID,0,VALID,96.0264,VALID,0,VALID,21.8496,VALID,44,VALID,0.623828,
2012-07-07, 03:23:04,VALID,997.968,VALID,0,VALID,96.034,VALID,0,VALID,21.8496,VALID,44,VALID,0.489453,
2012-07-07, 03:24:04,VALID,997.984,VALID,0,VALID,96.0417,VALID,0,VALID,21.809,VALID,44,VALID,0.404297,
2012-07-07, 03:25:04,VALID,997.948,VALID,0,VALID,96.0188,VALID,0,VALID,21.809,VALID,44,VALID,0.348828,
2012-07-07, 03:26:04,VALID,997.945,VALID,0,VALID,96.0035,VALID,0,VALID,21.809,VALID,44,VALID,0.300781,
2012-07-07, 03:27:04,VALID,997.944,VALID,0,VALID,96.0111,VALID,0,VALID,21.8496,VALID,44,VALID,0.28125,
2012-07-07, 03:28:04,VALID,997.939,VALID,0,VALID,95.9883,VALID,0,VALID,21.8887,VALID,44,VALID,0.273828,
2012-07-07, 03:29:04,VALID,997.935,VALID,0,VALID,95.9959,VALID,0,VALID,21.9082,VALID,44,VALID,0.19375,
2012-07-07, 03:30:04,VALID,997.94,VALID,0,VALID,95.9959,VALID,0,VALID,21.9065,VALID,44,VALID,0.245703,
2012-07-07, 03:31:04,VALID,997.925,VALID,0,VALID,96.0111,VALID,0,VALID,21.9082,VALID,44,VALID,0.227344,
2012-07-07, 03:32:04,VALID,997.893,VALID,0,VALID,96.0035,VALID,0,VALID,21.9065,VALID,44,VALID,0.0941406,
2012-07-07, 03:33:04,VALID,997.884,VALID,0,VALID,96.0111,VALID,0,VALID,21.9277,VALID,44,VALID,0.175391,
2012-07-07, 03:34:04,VALID,997.902,VALID,0,VALID,96.0188,VALID,0,VALID,21.9082,VALID,44,VALID,0.140234,
2012-07-07, 03:35:04,VALID,997.89,VALID,0,VALID,96.0264,VALID,0,VALID,21.8887,VALID,44,VALID,0.166016,
2012-07-07, 03:36:04,VALID,997.892,VALID,0,VALID,96.0111,VALID,0,VALID,21.8887,VALID,44,VALID,0.0015625,
2012-07-07, 03:37:04,VALID,997.854,VALID,0,VALID,96.0111,VALID,0,VALID,21.8887,VALID,44,VALID,0,
2012-07-07, 03:38:04,VALID,997.834,VALID,0,VALID,96.0188,VALID,0,VALID,21.8675,VALID,44,VALID,0.00429688,
2012-07-07, 03:39:04,VALID,997.811,VALID,0,VALID,96.0188,VALID,0,VALID,21.8887,VALID,44,VALID,0.096875,
2012-07-07, 03:40:04,VALID,997.769,VALID,0,VALID,96.0035,VALID,0,VALID,21.8887,VALID,44,VALID,0,
2012-07-07, 03:41:04,VALID,997.757,VALID,0,VALID,96.0035,VALID,0,VALID,21.8887,VALID,44,VALID,0,
2012-07-07, 03:42:04,VALID,997.734,VALID,0,VALID,96.0264,VALID,0,VALID,21.8887,VALID,44,VALID,0.00117188,
2012-07-07, 03:43:04,VALID,997.723,VALID,0,VALID,96.0111,VALID,0,VALID,21.8887,VALID,44,VALID,0.282813,
2012-07-07, 03:44:04,VALID,997.725,VALID,0,VALID,95.9959,VALID,0,VALID,21.9082,VALID,44,VALID,0.305469,
2012-07-07, 03:45:04,VALID,997.734,VALID,0,VALID,96.0111,VALID,0,VALID,21.9082,VALID,44,VALID,0.311328,
2012-07-07, 03:46:04,VALID,997.75,VALID,0,VALID,96.0035,VALID,0,VALID,21.9082,VALID,44,VALID,0,
2012-07-07, 03:47:04,VALID,997.747,VALID,0,VALID,96.0111,VALID,0,VALID,21.9277,VALID,44,VALID,0.172266,
2012-07-07, 03:48:04,VALID,997.743,VALID,0,VALID,95.9959,VALID,0,VALID,21.926,VALID,44,VALID,0.274219,
2012-07-07, 03:49:04,VALID,997.767,VALID,0,VALID,96.0111,VALID,0,VALID,21.9472,VALID,44,VALID,0.248437,
2012-07-07, 03:50:04,VALID,997.727,VALID,0,VALID,95.9806,VALID,0,VALID,21.9472,VALID,44,VALID,0.303125,